GW6548 Weather Reports


time (UTC)temp
C
wind
direction
speed
KPH
gust
KPH
rain 1hr
cm
rain 24hr
cm
rain mn
cm
humidity
%
barometer
mb
20260503055104 13 0.0 0.0 0.00 0.00 0.00 53 1019.4
20260503054024 13 0.0 1.6 0.00 0.00 0.00 53 1019.4
20260503053049 14 131 0.0 1.6 0.00 0.00 0.00 52 1019.3
20260503052113 14 60 0.0 1.6 0.00 0.00 0.00 47 1019.2
20260503051034 14 0.0 1.6 0.00 0.00 0.00 48 1019.3
20260503050058 14 23 0.0 1.6 0.00 0.00 0.00 47 1019.3
20260503045058 14 0.0 1.6 0.00 0.00 0.00 48 1019.4
20260503044043 14 54 0.0 4.8 0.00 0.00 0.00 46 1019.4
20260503043107 14 46 1.6 3.2 0.00 0.00 0.00 46 1019.4
20260503042028 14 13 0.0 3.2 0.00 0.00 0.00 47 1019.3
20260503041052 14 352 1.6 6.4 0.00 0.00 0.00 47 1019.5
20260503040116 13 356 0.0 3.2 0.00 0.00 0.00 49 1019.3
20260503035117 14 33 1.6 4.8 0.00 0.00 0.00 49 1019.6
20260503034101 13 74 1.6 3.2 0.00 0.00 0.00 49 1019.5
20260503033022 14 54 0.0 3.2 0.00 0.00 0.00 49 1019.6
20260503032046 14 75 0.0 3.2 0.00 0.00 0.00 47 1019.6
20260503031112 14 18 0.0 3.2 0.00 0.00 0.00 48 1019.5
20260503030031 14 85 0.0 3.2 0.00 0.00 0.00 48 1019.7
20260503025135 14 0.0 0.0 0.00 0.00 0.00 49 1019.7
20260503024016 15 359 0.0 4.8 0.00 0.00 0.00 48 1019.7
20260503023040 15 16 0.0 4.8 0.00 0.00 0.00 48 1019.8
20260503022105 15 7 1.6 3.2 0.00 0.00 0.00 48 1019.9
20260503021105 15 35 0.0 1.6 0.00 0.00 0.00 47 1019.9
20260503020049 15 8 0.0 1.6 0.00 0.00 0.00 47 1020.1
20260503015114 15 19 0.0 1.6 0.00 0.00 0.00 46 1020.0
20260503014034 15 33 0.0 1.6 0.00 0.00 0.00 46 1020.1
20260503013139 15 68 0.0 1.6 0.00 0.00 0.00 46 1020.0
20260503012059 16 15 1.6 4.8 0.00 0.00 0.00 45 1020.0
20260503011124 16 12 1.6 3.2 0.00 0.00 0.00 46 1020.2
20260503010108 16 21 0.0 3.2 0.00 0.00 0.00 45 1020.3
20260503005028 16 15 0.0 3.2 0.00 0.00 0.00 45 1020.3
20260503004053 16 6 0.0 3.2 0.00 0.00 0.00 45 1020.2
20260503003117 16 3 1.6 4.8 0.00 0.00 0.00 43 1020.5
20260503002038 16 58 0.0 3.2 0.00 0.00 0.00 44 1020.5
20260503001142 17 19 1.6 4.8 0.00 0.00 0.00 43 1020.5
20260503000022 17 37 1.6 4.8 0.00 0.00 0.00 44 1020.7
20260502235047 17 22 1.6 3.2 0.00 0.00 0.00 43 1020.7
20260502234112 17 59 1.6 11.3 0.00 0.00 0.00 42 1020.7
20260502233032 17 273 1.6 4.8 0.00 0.00 0.00 43 1020.8
20260502232056 17 52 0.0 3.2 0.00 0.00 0.00 42 1020.7
20260502231017 18 47 3.2 6.4 0.00 0.00 0.00 41 1020.8
20260502230041 18 357 3.2 9.7 0.00 0.00 0.00 40 1020.8
20260502225105 18 23 1.6 9.7 0.00 0.00 0.00 40 1020.7
20260502224026 18 22 3.2 14.5 0.00 0.00 0.00 40 1020.6
20260502223130 18 4 3.2 11.3 0.00 0.00 0.00 40 1020.6
20260502222155 18 21 1.6 11.3 0.00 0.00 0.00 41 1020.4
20260502221035 18 9 3.2 14.5 0.00 0.00 0.00 40 1020.4
20260502220139 18 356 1.6 11.3 0.00 0.00 0.00 40 1020.5
20260502215100 18 355 3.2 12.9 0.00 0.00 0.00 40 1020.5
20260502214044 18 45 3.2 14.5 0.00 0.00 0.00 39 1020.4
20260502213109 19 359 4.8 12.9 0.00 0.00 0.00 39 1020.3
20260502212029 19 351 1.6 9.7 0.00 0.00 0.00 39 1020.2
20260502211054 19 18 1.6 11.3 0.00 0.00 0.00 38 1020.2
20260502210118 19 2 3.2 11.3 0.00 0.00 0.00 38 1020.1
20260502205119 19 10 3.2 12.9 0.00 0.00 0.00 38 1020.1
20260502204104 19 5 3.2 11.3 0.00 0.00 0.00 38 1020.1
20260502203023 20 7 1.6 9.7 0.00 0.00 0.00 38 1020.1
20260502202048 20 30 1.6 9.7 0.00 0.00 0.00 37 1020.0
20260502201112 20 73 3.2 11.3 0.00 0.00 0.00 37 1020.0
20260502200113 20 102 1.6 9.7 0.00 0.00 0.00 36 1019.9
20260502195057 20 1 4.8 12.9 0.00 0.00 0.00 35 1019.8
20260502194018 20 53 1.6 11.3 0.00 0.00 0.00 35 1019.7
20260502193041 20 36 3.2 16.1 0.00 0.00 0.00 35 1019.5
20260502192106 20 63 1.6 9.7 0.00 0.00 0.00 35 1019.6
20260502191027 20 62 1.6 9.7 0.00 0.00 0.00 35 1019.4
20260502190051 21 84 1.6 9.7 0.00 0.00 0.00 34 1019.2
20260502185116 21 73 1.6 4.8 0.00 0.00 0.00 34 1019.1
20260502184036 21 80 1.6 9.7 0.00 0.00 0.00 34 1019.0
20260502183101 21 73 1.6 4.8 0.00 0.00 0.00 33 1018.9
20260502182021 21 99 4.8 9.7 0.00 0.00 0.00 33 1018.7
20260502181046 21 115 3.2 11.3 0.00 0.00 0.00 33 1018.6
20260502180150 22 99 3.2 6.4 0.00 0.00 0.00 32 1018.6
20260502170104 23 105 3.2 14.5 0.00 0.00 0.00 27 1018.3
20260502164113 24 122 4.8 11.3 0.00 0.00 0.00 27 1018.2
20260502163114 24 113 3.2 11.3 0.00 0.00 0.00 26 1018.3
20260502162058 25 156 3.2 11.3 0.00 0.00 0.00 26 1018.3
20260502161019 25 93 3.2 11.3 0.00 0.00 0.00 26 1018.4
20260502160123 25 142 4.8 11.3 0.00 0.00 0.00 25 1018.5
20260502152116 26 129 3.2 9.7 0.00 0.00 0.00 24 1018.6
20260502151037 26 137 4.8 16.1 0.00 0.00 0.00 23 1018.4
20260502140120 26 125 4.8 12.9 0.00 0.00 0.00 23 1019.1
20260502123043 27 106 4.8 11.3 0.00 0.05 0.00 22 1020.0
20260502122147 26 27 1.6 4.8 0.00 0.05 0.00 25 1020.1
20260502121028 25 131 3.2 9.7 0.00 0.05 0.00 27 1020.5
20260502115156 25 111 3.2 6.4 0.00 0.05 0.00 29 1020.8
20260502114037 25 258 3.2 6.4 0.00 0.05 0.00 31 1020.8
20260502113102 24 308 1.6 4.8 0.00 0.05 0.00 32 1021.1
20260502112022 25 291 3.2 6.4 0.00 0.05 0.00 32 1021.3
20260502111047 23 320 1.6 6.4 0.00 0.05 0.00 33 1021.5
20260502110111 24 245 1.6 4.8 0.00 0.05 0.00 34 1021.7
20260502105031 23 355 0.0 3.2 0.00 0.05 0.00 33 1021.9
20260502104056 23 347 1.6 6.4 0.00 0.05 0.00 32 1022.2
20260502103016 23 28 1.6 3.2 0.00 0.05 0.00 35 1022.3
20260502102041 22 249 3.2 6.4 0.00 0.05 0.00 34 1022.6
20260502101105 22 337 3.2 4.8 0.00 0.05 0.00 35 1022.9
20260502100105 21 301 1.6 6.4 0.00 0.05 0.00 36 1023.0
20260502091020 20 291 1.6 4.8 0.00 0.05 0.00 41 1023.9
20260502071057 16 80 1.6 4.8 0.00 0.05 0.00 47 1025.7
20260502070057 15 85 1.6 9.7 0.00 0.05 0.00 46 1025.8
20260502065121 15 81 1.6 6.4 0.00 0.05 0.00 46 1025.8
20260502064106 15 91 1.6 6.4 0.00 0.05 0.00 49 1025.8
20260502063026 13 74 3.2 9.7 0.00 0.05 0.00 53 1025.9
20260502062051 13 65 1.6 3.2 0.00 0.05 0.00 54 1026.0
20260502061115 12 79 3.2 12.9 0.00 0.05 0.00 54 1026.1
20260502060035 11 110 3.2 9.7 0.00 0.05 0.00 59 1026.0